Afshar-e Bala, Afghanistan

5:04 AM AFT on December 11, 2016 (GMT +0430)
Kabul

Weather History for OAKB - May, 2014

Change the Weather History Date:

Monday, May 5, 2014

  Actual Average Record
Temperature  
Mean Temperature 62 °F -  
Max Temperature 73 °F 78 °F - ()
Min Temperature 51 °F 49 °F - ()
Degree Days  
Heating Degree Days 3    
Growing Degree Days 12 (Base 50)    
Moisture  
Dew Point 49 °F    
Average Humidity 66    
Maximum Humidity 100    
Minimum Humidity 36    
Precipitation  
Precipitation 0.00 in 0.03 in - ()
Sea Level Pressure  
Sea Level Pressure 30.09 in    
Wind  
Wind Speed 5 mph ()    
Max Wind Speed 16 mph    
Max Gust Speed 26 mph    
Visibility 5.0 miles    
Events Rain , Thunderstorm    
T = Trace of Precipitation, MM = Missing Value Source: Averaged Metar Reports

Daily Weather History Graph

Daily Weather History Graph

Search for Another Location

Airport or City:

Trip Planner

Search our weather history database for the weather conditions in past years. The results will help you decide how hot, cold, wet, or windy it might be!

Date:

Astronomy

May. 05, 2014 Rise Set
Actual Time 4:59 AM AFT 6:40 PM AFT
Civil Twilight 4:32 AM AFT 7:07 PM AFT
Nautical Twilight 3:59 AM AFT 7:40 PM AFT
Astronomical Twilight 3:25 AM AFT 8:15 PM AFT
Moon 9:54 AM AFT (5/5) 11:47 PM AFT (5/5)
Length of Visible Light 14h 35m
Length of Day
13h 41m
Waxing Crescent, 33% of the Moon is Illuminated
May 5
Waxing Crescent
May 7
First Quarter
May 14
Full
May 21
Last Quarter
May 28
New

Hourly Weather History & Observations

Time (AFT) Temp. Dew Point Humidity Pressure Visibility Wind Dir Wind Speed Gust Speed Precip Events Conditions
12:20 AM 51.8 °F 50.0 °F 94% 30.09 in 3.7 mi West 5.8 mph - N/A   Unknown
1:20 AM 51.8 °F 51.8 °F 100% 30.09 in 3.7 mi SE 2.3 mph - N/A   Scattered Clouds
2:20 AM 51.8 °F 50.0 °F 94% 30.06 in 3.1 mi SE 4.6 mph - N/A   Scattered Clouds
3:20 AM 51.8 °F 50.0 °F 94% 30.06 in 3.1 mi North 5.8 mph - N/A   Scattered Clouds
4:20 AM 51.8 °F 50.0 °F 94% 30.06 in 2.5 mi South 4.6 mph - N/A   Scattered Clouds
5:20 AM 51.8 °F 50.0 °F 94% 30.06 in 3.1 mi Variable 2.3 mph - N/A   Scattered Clouds
6:20 AM 53.6 °F 51.8 °F 94% 30.09 in 3.1 mi Variable 2.3 mph - N/A   Scattered Clouds
7:20 AM 57.2 °F 51.8 °F 82% 30.12 in 3.7 mi ENE 4.6 mph - N/A   Mostly Cloudy
8:20 AM 60.8 °F 51.8 °F 72% 30.12 in 3.7 mi East 4.6 mph - N/A   Mostly Cloudy
9:20 AM 64.4 °F 51.8 °F 64% 30.12 in 3.7 mi Variable 2.3 mph - N/A   Mostly Cloudy
10:20 AM 68.0 °F 51.8 °F 56% 30.12 in 5.0 mi Variable 2.3 mph - N/A   Mostly Cloudy
11:20 AM 69.8 °F 50.0 °F 49% 30.09 in 6.2 mi Variable 5.8 mph - N/A   Mostly Cloudy
12:20 PM 69.8 °F 48.2 °F 46% 30.09 in 6.2 mi East 5.8 mph - N/A   Mostly Cloudy
1:20 PM 73.4 °F 46.4 °F 38% 30.06 in 6.2 mi East 8.1 mph - N/A   Mostly Cloudy
2:20 PM 73.4 °F 44.6 °F 36% 30.04 in 6.2 mi ENE 5.8 mph - N/A   Mostly Cloudy
3:20 PM 71.6 °F 44.6 °F 38% 30.04 in 6.2 mi Variable 5.8 mph - N/A   Mostly Cloudy
4:20 PM 69.8 °F 48.2 °F 46% 30.04 in 6.2 mi North 12.7 mph - N/A Thunderstorm Mostly Cloudy
5:20 PM 68.0 °F 50.0 °F 52% 30.06 in 6.2 mi NW 5.8 mph - N/A Thunderstorm Mostly Cloudy
5:40 PM 66.2 °F 42.8 °F 43% 30.06 in 4.3 mi WNW 13.8 mph 26.5 mph N/A Rain , Thunderstorm Light Rain Showers
6:20 PM 64.4 °F 42.8 °F 45% 30.09 in 6.2 mi WSW 16.1 mph - N/A Rain , Thunderstorm Light Thunderstorms and Rain
6:49 PM 60.8 °F 44.6 °F 55% 30.09 in 6.2 mi SSE 5.8 mph - N/A Thunderstorm Mostly Cloudy
7:20 PM 60.8 °F 46.4 °F 59% 30.12 in 6.2 mi ESE 10.4 mph - N/A Rain , Thunderstorm Light Rain Showers
8:20 PM 59.0 °F 48.2 °F 67% 30.15 in 6.2 mi ESE 13.8 mph - N/A Thunderstorm Mostly Cloudy
9:20 PM 57.2 °F 50.0 °F 77% 30.15 in 6.2 mi West 4.6 mph - N/A   Scattered Clouds
10:20 PM 59.0 °F 46.4 °F 63% 30.18 in 6.2 mi NNW 11.5 mph - N/A   Mostly Cloudy
11:20 PM 57.2 °F 48.2 °F 72% 30.18 in 6.2 mi NNW 13.8 mph - N/A   Mostly Cloudy